Regional Weather Roundup
Issued by NWS

Home | Current Version | Previous Version | Graphics & Text | Print | Product List | Glossary On
Versions: 1 2 3 4 5 6 7 8 9 10 11 12 13 14 15 16 17 18 19 20 21 22 23 24 25 26 27 28 29 30 31 32 33 34 35 36 37 38 39 40 41 42 43 44 45 46 47 48 49 50
000
ASUS43 KLSX 210807
RWRMO

WEATHER SUMMARY FOR MISSOURI
NATIONAL WEATHER SERVICE SPRINGFIELD MO
300 AM CDT SAT OCT 21 2017

NOTE: "FAIR" INDICATES FEW OR NO CLOUDS BELOW 12,000 FEET WITH NO
       SIGNIFICANT WEATHER AND/OR OBSTRUCTIONS TO VISIBILITY.
       CURRENT SKY AND/OR WEATHER CONDITIONS ARE NOT AVAILABLE FOR
       CHILLICOTHE AND FARMINGTON.

MOZ001>031-035>038-043-044-053-054-210900-
...NORTHERN AND WESTERN MISSOURI...

CITY           SKY/WX    TMP DP  RH WIND       PRES   REMARKS
KANSAS CTY INT CLEAR     63  57  81 S20G29    29.82F
KANSAS C DTWN  CLEAR     66  58  75 S10G22    29.85S
LEE`S SUMMIT   CLEAR     63  57  81 S20G31    29.86F
ST JOSEPH      LGT RAIN  66  60  81 S17G29    29.79F
CHILLICOTHE      N/A     65  58  78 S12G20    29.88F
KIRKSVILLE     CLOUDY    64  57  78 S15       29.93S

$$
MOZ066>068-077>081-088>096-101>105-210900-
...SOUTHWEST MISSOURI...

CITY           SKY/WX    TMP DP  RH WIND       PRES   REMARKS
SPRINGFIELD    PTCLDY    63  58  83 S16       29.97S
BRANSON        PTCLDY    61  55  82 CALM      30.02S

$$
MOZ032>034-039>042-045>050-055>058-069>072-210900-
...CENTRAL MISSOURI...

CITY           SKY/WX    TMP DP  RH WIND       PRES   REMARKS
COLUMBIA       CLOUDY    62  56  80 S12       29.97F
JEFFERSON CITY CLOUDY    63  54  72 E8        29.98F
ROLLA          MOCLDY    63  53  70 S13       30.02R
SEDALIA        PTCLDY    65  58  78 S18       29.94S
WHITEMAN AFB   CLEAR     63  57  81 S14       29.87F
WARRENSBURG    CLEAR     63  55  77 SE13G18   29.90S
OSAGE BEACH    CLOUDY    64  55  72 S9G16     29.99S

$$
MOZ051-052-059>065-210900-
...EAST CENTRAL MISSOURI...

CITY           SKY/WX    TMP DP  RH WIND       PRES   REMARKS
ST LOUIS INTL  CLOUDY    64  52  64 SE8       30.04S
SPIRIT OF STL  CLOUDY    67  52  58 CALM      30.03R
ST CHARLES     CLOUDY    61  53  75 E8        30.03S

$$
MOZ072>076-082>087-097>100-106>115-210900-
...SOUTH CENTRAL AND SOUTHEAST MISSOURI...

CITY           SKY/WX    TMP DP  RH WIND       PRES   REMARKS
CAPE GIRARDEAU CLOUDY    58  49  72 S8        30.09S
FARMINGTON     PTCLDY    63  52  67 S12G18    30.06S
POPLAR BLUFF   CLOUDY    59  53  80 S3        30.08S
WEST PLAINS    MOCLDY    61  54  77 SE9       30.07S

$$


USA.gov is the U.S. government's official web portal to all federal, state and local government web resources and services.